Regional Weather Roundup
Issued by NWS

Home | Current Version | Previous Version | Graphics & Text | Print | Product List | Glossary On
Versions: 1 2 3 4 5 6 7 8 9 10 11 12 13 14 15 16 17 18 19 20 21 22 23 24 25 26 27 28
000
ASUS45 KBOU 201310
RWRCO

WEATHER ROUNDUP FOR COLORADO
NATIONAL WEATHER SERVICE DENVER/BOULDER CO
600 AM MST SAT JAN 20 2018

NOTE: "FAIR" INDICATES FEW OR NO CLOUDS BELOW 12000 FEET WITH NO
SIGNIFICANT WEATHER AND/OR OBSTRUCTIONS TO VISIBILITY.

COZ001>005-013-030-031-201400-
...NORTHWEST COLORADO...

CITY           SKY/WX    TMP DP  RH WIND       PRES   REMARKS
CRAIG          CLOUDY    32  25  75 CALM      29.80F
HAYDEN         CLOUDY   N/A N/A N/A E6        29.81R
MEEKER         CLOUDY    42  23  46 CALM      29.78S
RABBIT EARS PA CLOUDY    30  19  64 SW14G24   29.86F WCI  20
STEAMBOAT SPGS CLOUDY    29  22  74 CALM      29.78F
WALDEN         FAIR      32  23  69 SW7       29.83S WCI  26
$$

COZ006>008-011-201400-
...WEST CENTRAL VALLEYS...

CITY           SKY/WX    TMP DP  RH WIND       PRES   REMARKS
GRAND JUNCTION FAIR      43  25  49 SE12      29.76F
MONTROSE       CLOUDY    49  22  34 CALM      29.85R
EAGLE          FAIR      26  19  74 S6        29.85R WCI  19
RIFLE          CLOUDY    29  24  82 CALM      29.81R
DELTA          CLOUDY    45  24  42 CALM      29.83S
NUCLA          CLOUDY    45  23  42 S6        29.88F
$$

COZ017>023-064>068-201400-
...SOUTHWEST COLORADO...

CITY           SKY/WX    TMP DP  RH WIND       PRES   REMARKS
DURANGO        CLOUDY    24  18  77 NE5       29.97S WCI  18
CORTEZ         MOCLDY    34  23  64 CALM      29.90F
PAGOSA SPRINGS FAIR      26  16  68 CALM      30.00S THUNDER
TELLURIDE      CLOUDY    37  23  56 SE12      29.93F
WOLF CREEK PAS FAIR      18  14  86 S16G23    30.09R WCI   3
$$

COZ009-010-012-014-032>034-037-058>063-201400-
...CENTRAL COLORADO...

CITY           SKY/WX    TMP DP  RH WIND       PRES   REMARKS
ASPEN          MOCLDY    30  20  66 CALM      29.83R
BUENA VISTA    FAIR      17  11  76 W9        29.89S WCI   6
COPPER MTN     NOT AVBL
BERTHOUD PASS  FAIR      21  10  63 W21G30    29.93F WCI   6
COTTONWOOD PAS   N/A     39  18  41 W7        29.92S
GUNNISON       FAIR       9   7  92 CALM      29.95R
KREMMLING      FAIR      23  19  86 CALM      29.85S
LEADVILLE      FAIR      25  12  58 E6        29.88S WCI  18
MONARCH PASS   FAIR      21  12  68 SW16      30.07F WCI   7
SALIDA         FAIR      40  16  38 CALM      29.96F
SUNLIGHT       CLOUDY    28  19  69 SW18G35   29.91F WCI  16
WILKERSON PASS MOCLDY    27  12  54 SW16G28   29.94S WCI  14
$$

COZ069>075-201400-
...SAN LUIS VALLEY/SANGRE DE CRISTO MOUNTAINS...

CITY           SKY/WX    TMP DP  RH WIND       PRES   REMARKS
ALAMOSA        FAIR      18  10  71 SE6       29.93R WCI  10
DEL NORTE      FAIR      17   8  65 CALM      29.94S
LA VETA PASS   FAIR      30  18  59 S16G30      N/A  WCI  19
SAGUACHE       FAIR      18  10  73 NW8       29.95S WCI   7
$$

COZ035-036-038>040-201400-
...NORTHERN COLORADO FRONT RANGE...

CITY           SKY/WX    TMP DP  RH WIND       PRES   REMARKS
DENVER INTL AP FAIR      42  16  34 SW9       29.74S
DMNS CITY PARK NOT AVBL
AURORA         MOCLDY    41  16  35 W6        29.74S
FRONT RANGE AP FAIR      42  18  39 W9        29.75S
ERIE MUNI ARPT FAIR      27  17  67 SW6       29.80R WCI  20
BOULDER MUN AP FAIR      32  18  55 NE3       29.74R
CENTENNIAL     MOCLDY    50  17  27 SW16      29.74S
BROOMFIELD     PTCLDY    43  10  26 VRB5      29.74S
FORT COLLINS   FAIR      31  18  58 N3        29.75S
LONGMONT       FAIR      25  19  77 W6        29.76R WCI  18
$$

COZ041-046-047-076>085-087-088-201400-
...PIKES PEAK/PALMER DIVIDE AND SOUTHERN FOOTHILLS...

CITY           SKY/WX    TMP DP  RH WIND       PRES   REMARKS
COLO. SPRINGS  FAIR      46  16  30 SW17      29.79S
A. F. ACADEMY  FAIR      27  13  55 N9        29.80R WCI  18
SCHRIEVER AFB  FAIR      39  13  34 W12       29.79F
CHEYENNE MTN   FAIR      48  14  25 SE13G22   29.75S
ELLICOTT         N/A    N/A N/A N/A N6        29.78S
FALCON         FAIR      42  11  27 W7        29.82R
FORT CARSON    FAIR      50  16  25 W13       29.77S
LIMON          FAIR      28  16  60 N6        29.75R WCI  22
MONUMENT HILL  FAIR      32  16  51 S9        29.82S WCI  24
CANON CITY     FAIR      37  18  44 W14       29.78S
WALSENBURG     FAIR      46  18  31 W5        29.84S
TRINIDAD       FAIR      38  18  44 SW10      29.83S
$$

COZ042>045-048>051-090-091-201400-
...NORTHEAST COLORADO...

CITY           SKY/WX    TMP DP  RH WIND       PRES   REMARKS
GREELEY ARPT   FAIR      22  18  85 SW5       29.75S WCI  16
AKRON          FAIR      33  19  56 S8        29.72S WCI  26
BURLINGTON     FAIR      23  17  78 W6        29.74R WCI  16
WRAY           FAIR      23  21  93 W3        29.76R
YUMA           FAIR      23  18  80 SW3       29.74R
STERLING       FAIR      27  23  86 CALM      29.75R
HOLYOKE        FAIR      28  25  86 N6        29.76S WCI  22
FORT MORGAN    FAIR      26  17  70 CALM      29.75S
$$

COZ086-089-092>099-201400-
...SOUTHEAST COLORADO...

CITY           SKY/WX    TMP DP  RH WIND       PRES   REMARKS
PUEBLO         FAIR      31  17  56 CALM      29.76R
LA JUNTA       FAIR      39  19  44 W12       29.75S
LAMAR          FAIR      24  12  60 CALM      29.72S
SPRINGFIELD      N/A     47  19  33 W15       29.74R
$$




USA.gov is the U.S. government's official web portal to all federal, state and local government web resources and services.